Flag for Germany Weather past 2 weeks in Mechernich, North Rhine-Westphalia, Germany

Now
61 °F

Broken clouds.


Feels Like: 61 °F
Forecast: 40 / 51 °F
Wind: 3 mph from West

Location: Noervenich

Current Time: Apr 26, 2015 at 5:57:39 PM

Latest Report: Apr 26, 2015 at 5:20 PM


Visibility: N/A

Pressure: 29.68 "Hg

Humidity: 72%

Dew point: 52 °F

Location of MechernichLocation

Historic Weather in Mechernich — Graph

°F

Mechernich temperature yesterday

Maximum temperature yesterday: 61 °F (at 5:20 PM)
Minimum temperature yesterday: 52 °F (at 11:20 PM)
Average temperature yesterday: 56 °F

Past Weeks' High & Low Weather Summary

 TemperatureHumidityPressure
High75 °F (Apr 15, 2:20 PM)100% (Apr 23, 6:01 AM)30.48 "Hg (Apr 23, 6:01 AM)
Low34 °F (Apr 19, 6:20 AM)27% (Apr 24, 3:20 PM)29.68 "Hg (Apr 26, 4:20 PM)
Average53 °F63%30.16 "Hg
* Reported Apr 11 4:20 PM — Apr 26 4:20 PM, Mechernich, Weather by CustomWeather, © 2015

Note: Actual official high and low records may vary slightly from our data, if they occured in-between our weather recording intervals... More about our weather records

Advertising

Mechernich weather history for previous 24 hours

 ConditionsComfort  
Time TempWeatherWind HumidityBarometerVisibility
4:20 PM
Sun, Apr 26
61 °FBroken clouds.5 mph68%29.68 "HgN/A
3:20 PM61 °FBroken clouds.9 mph68%29.71 "HgN/A
2:20 PM61 °FBroken clouds.6 mph77%29.71 "HgN/A
1:20 PM57 °FSprinkles. Broken clouds.8 mph88%29.74 "Hg6 mi
12:20 PM61 °FBroken clouds.2 mph77%29.74 "HgN/A
11:20 AM59 °FCool.5 mph77%29.74 "HgN/A
10:20 AM59 °FCool.7 mph77%29.74 "HgN/A
9:20 AM57 °FCool.5 mph82%29.74 "HgN/A
8:20 AM54 °FCool.1 mph94%29.77 "HgN/A
7:20 AM50 °FCool.1 mph94%29.74 "Hg5 mi
6:20 AM52 °FCool.No wind94%29.74 "Hg5 mi
5:20 AM52 °FCool.1 mph94%29.74 "Hg4 mi
4:20 AM52 °FCool.1 mph94%29.74 "Hg6 mi
3:20 AM54 °FCool.3 mph88%29.74 "Hg4 mi
2:20 AM54 °FCool.3 mph88%29.77 "Hg2 mi
1:20 AM54 °FCool.3 mph82%29.77 "Hg5 mi
12:20 AM54 °FCool.3 mph82%29.77 "HgN/A
11:20 PM
Sat, Apr 25
52 °FCool.2 mph88%29.77 "Hg4 mi
10:20 PM54 °FCool.2 mph88%29.77 "Hg5 mi
9:20 PM57 °FCool.1 mph77%29.77 "Hg4 mi
8:20 PM59 °FCool.3 mph72%29.77 "HgN/A
7:20 PM59 °FCool.2 mph77%29.74 "HgN/A
6:20 PM61 °FCool.10 mph68%29.77 "HgN/A
5:20 PM61 °FCool.9 mph68%29.74 "HgN/A
Weather by CustomWeather, © 2015

See weather overviewHow to use our weather pages